Location: Bouzel
(45.7775°N, 3.3167°E)
Time: 01:12:36
(UTC+00:00)

Daily predictions for brighter satellites

Satellite Brightness Start Highest point End
(mag) Time Altitude Azimuth Time Altitude Azimuth Time Altitude Azimuth
STARLINK-1099 3.9 00:00:01 10° WNW 00:03:25 57° W 00:03:25 57° W
ATLAS CENTAUR R/B 4.3 00:03:08 10° N 00:04:23 13° NNE 00:06:00 10° ENE
Cosmos 292 Rocket 4.3 00:03:39 41° WSW 00:04:51 52° WNW 00:09:36 10° NNE
Lacrosse 5 4.2 00:02:40 10° W 00:03:12 11° W 00:03:12 11° W
STARLINK-1104 4.1 00:05:00 10° WNW 00:08:12 50° W 00:08:12 50° W
Cosmos 1655 Rocket 4.4 00:07:30 36° SW 00:09:44 53° WNW 00:15:51 10° N
GEOS 3 Rocket 3.9 00:07:39 25° ESE 00:10:38 65° NE 00:15:54 10° NNW
S3M 4.5 00:05:01 10° NNW 00:10:51 47° W 00:12:36 37° SW
Cosmos 1726 2.8 00:07:48 10° NNW 00:10:54 45° WNW 00:10:54 45° WNW
Cosmos 2058 Rocket 4.2 00:08:27 10° N 00:12:33 36° ENE 00:13:46 31° ESE
COSMOS 2455 3.1 00:11:39 44° SSE 00:13:01 53° ESE 00:18:52 10° NE
Meteor 1-29 4.0 00:10:50 10° NNE 00:13:32 39° ENE 00:13:32 39° ENE
STARLINK-1144 4.3 00:10:00 10° WNW 00:12:59 44° W 00:12:59 44° W
Cosmos 2263 4.4 00:12:25 40° SW 00:14:20 64° WNW 00:19:56 10° NNE
Cosmos 2228 2.9 00:10:54 10° N 00:15:10 73° E 00:15:32 67° ESE
SL-14 R/B 4.5 00:18:39 30° E 00:18:50 30° E 00:22:15 10° NNE
Meteor 2-15 Rocket 4.4 00:12:43 10° N 00:18:55 83° W 00:20:55 46° S
STARLINK-1103 4.5 00:14:59 10° WNW 00:17:46 38° W 00:17:46 38° W
Cosmos 1953 3.3 00:15:59 10° NNW 00:19:26 36° W 00:19:26 36° W
Cosmos 1340 Rocket 3.3 00:17:26 10° NNW 00:21:08 48° W 00:21:08 48° W
Okean 1-7 Rocket 4.2 00:22:03 41° ESE 00:22:44 45° E 00:27:02 10° NNE
Cosmos 921 Rocket 4.5 00:23:34 24° ESE 00:24:01 24° E 00:27:29 10° NE
Cosmos 1300 4.0 00:20:52 10° N 00:24:18 31° ENE 00:25:04 29° E
BREEZE M DEB (TANK) 4.4 00:26:49 17° ENE 00:26:49 17° ENE 00:27:49 10° ENE
Cosmos 1992 Rocket 4.4 00:25:15 39° WSW 00:26:48 53° WNW 00:31:56 10° NNE
COSMOS 2487 2.8 00:24:23 10° NNW 00:27:18 60° NNW 00:27:18 60° NNW
Cosmos 1833 4.3 00:23:12 10° NW 00:28:42 56° WSW 00:29:45 48° SSW
USA 215 4.4 00:33:07 23° WSW 00:33:07 23° WSW 00:37:37 10° WNW
Cosmos 1626 2.7 00:34:31 47° E 00:34:34 47° E 00:38:09 10° NNE
Cosmos 1656 Rocket 4.0 00:33:51 38° WSW 00:35:53 61° WNW 00:41:27 10° NNE
Cosmos 1606 Rocket 3.5 00:34:15 10° NNW 00:38:31 61° W 00:38:48 59° WSW
FALCON 9 R/B 3.4 00:38:25 36° S 00:39:47 38° SSE 00:55:09 10° E
CZ-4 R/B 4.2 00:39:30 10° N 00:44:12 53° WNW 00:45:23 42° WSW
Meteor 2-21 4.4 00:45:34 42° S 00:47:51 88° W 00:54:04 10° N
Cosmos 2297 Rocket 3.9 00:43:11 10° N 00:48:08 30° NE 00:53:05 10° ESE
SL-4 R/B 2.3 00:49:12 57° SSW 00:50:00 70° SSE 00:54:45 10° ENE
NOSS 3-2 (C) 4.4 00:44:11 10° NW 00:51:26 46° WSW 00:54:30 33° SSW
Cosmos 1437 3.8 00:52:48 35° ENE 00:52:48 35° ENE 00:55:13 10° NNE
PSLV R/B 4.3 00:48:26 10° N 00:52:51 47° WNW 00:53:53 39° WSW
Cosmos 1674 3.7 00:53:21 34° WNW 00:53:27 34° WNW 00:56:54 10° N
ATLAS CENTAUR R/B 1.4 00:56:56 60° SW 00:57:42 85° WNW 01:01:53 10° NE
SL-19 R/B 4.1 00:52:36 10° NNE 00:58:01 88° ESE 01:00:03 41° SSW
Cosmos 1777 Rocket 3.9 00:54:48 10° NNW 01:00:03 79° WSW 01:01:54 41° S
Timation 2 Rocket 3.9 00:53:55 10° NNW 01:00:20 84° ENE 01:04:30 22° SSE
SL-16 R/B 2.9 00:56:01 18° SE 01:00:33 60° ENE 01:06:37 10° N
NOSS 3-4 (A) 3.7 00:57:31 29° WSW 01:00:37 62° NW 01:06:58 10° NE
NOSS 3-4 (C) 3.7 00:57:37 29° WSW 01:00:43 63° NW 01:07:05 10° NE
BREEZE-M R/B 3.5 01:01:07 43° SSE 01:01:07 43° SSE 01:04:17 10° ENE
Spot 1 4.2 01:00:54 51° S 01:02:01 74° WSW 01:06:52 10° NNW
STARLINK-29 4.0 01:04:34 37° E 01:04:34 37° E 01:06:50 10° ENE
Cosmos 1455 4.5 01:03:47 10° NNE 01:06:38 20° ENE 01:09:23 10° ESE
ATLAS 3B R/B 2.6 01:00:39 10° NW 01:07:27 73° WSW 01:12:43 19° SSE
CENTAUR R/B 3.6 01:03:38 10° NW 01:11:14 42° WSW 01:14:47 30° SSW
BREEZE-M DEB (TANK) 1.7 01:12:39 59° NNE 01:12:39 59° NNE 01:14:37 10° ENE
Meteor 2-21 Rocket 4.5 01:11:40 36° SSW 01:14:17 73° W 01:20:28 10° N
Cosmos 1745 Rocket 4.0 01:12:45 32° S 01:15:45 79° E 01:21:54 10° N
Cosmos 1867 4.0 01:10:39 10° NW 01:15:47 42° WSW 01:16:44 39° SW
Cosmos 1892 Rocket 4.2 01:14:51 36° WSW 01:15:47 42° WNW 01:19:59 10° N
RESURS DK-1 2.3 01:19:17 54° SSW 01:20:11 86° WNW 01:24:22 10° NNE
Cosmos 2227 Rocket 3.2 01:18:30 10° NNW 01:23:58 46° ENE 01:29:25 10° SE
Meteor 1-24 Rocket 3.9 01:22:03 35° SW 01:24:01 54° WNW 01:29:18 10° N
Cosmos 1356 Rocket 3.3 01:20:17 10° N 01:24:27 90° SSE 01:25:49 42° S
Cosmos 2369 Rocket 4.4 01:21:53 10° W 01:25:36 18° NW 01:29:20 10° N
CZ-2D R/B 2.2 01:22:29 10° NNE 01:27:45 71° ESE 01:30:15 31° S
Helios 1B rocket 4.3 01:24:57 10° NNW 01:27:52 19° WNW 01:29:11 16° W
ATLAS 2AS CENTAUR R/B 3.7 01:23:17 16° WSW 01:29:37 50° NW 01:37:16 10° NNE
ADEOS II 3.5 01:25:41 10° NE 01:30:18 30° E 01:34:08 14° SSE
IKONOS-2 4.4 01:29:56 35° SSE 01:31:44 90° NW 01:36:03 10° NNW
CZ-4C R/B 3.4 01:30:46 43° S 01:32:01 69° WSW 01:36:21 10° NNW
STARLINK-1228 2.8 01:31:47 10° WNW 01:35:08 79° SW 01:38:28 10° SE
STARLINK-1234 2.7 01:33:13 10° WNW 01:36:21 81° SSW 01:37:02 50° SE
Resurs 1-4 Rocket 2.1 01:32:12 10° NNE 01:37:31 87° ESE 01:40:11 31° SSW
STARLINK-1212 2.9 01:34:35 10° WNW 01:37:41 78° NNE 01:40:47 10° ESE
STARLINK-1105 2.9 01:35:04 10° WNW 01:38:09 79° NNE 01:41:14 10° ESE
STARLINK-1209 2.7 01:35:28 10° WNW 01:38:37 74° SW 01:38:42 73° SSW
STARLINK-1247 2.9 01:35:57 10° WNW 01:39:05 80° NNE 01:42:13 10° ESE
USA 81 4.2 01:36:19 26° S 01:39:17 73° E 01:44:34 10° N
STARLINK-1227 2.8 01:36:25 10° WNW 01:39:32 81° NNE 01:42:37 10° ESE
STARLINK-52 2.8 01:39:41 65° WSW 01:40:06 88° NW 01:43:20 10° ENE
STARLINK-1226 2.8 01:37:16 10° WNW 01:40:24 82° NNE 01:43:31 10° ESE
STARLINK-1215 2.8 01:38:13 10° WNW 01:41:21 83° NNE 01:44:28 10° ESE
Cosmos 1758 Rocket 4.3 01:39:23 23° SSE 01:41:45 46° E 01:45:56 10° NNE
ARIANE 5 R/B 4.4 01:38:18 10° NE 01:42:20 23° E 01:46:18 10° SE
STARLINK-1217 2.8 01:39:58 10° WNW 01:43:06 86° NNE 01:46:13 10° ESE
STARLINK-1208 4.5 01:39:11 10° NW 01:43:15 52° NNE 01:47:18 10° E
STARLINK-1229 2.8 01:40:54 10° WNW 01:44:02 87° NNE 01:47:09 10° ESE
STARLINK-1270 2.7 01:41:46 10° WNW 01:44:53 89° NNE 01:48:01 10° ESE
NPP 3.6 01:39:32 10° NNE 01:44:58 86° ESE 01:47:57 28° SSW
STARLINK-1189 2.7 01:43:36 10° WNW 01:46:44 88° SW 01:49:51 10° ESE
STARLINK-1188 2.7 01:44:29 10° WNW 01:47:37 87° SSW 01:50:45 10° ESE
STARLINK-1271 4.4 01:44:11 10° NW 01:48:16 54° NNE 01:52:20 10° ESE
STARLINK-1235 2.7 01:45:11 10° WNW 01:48:16 68° SW 01:51:20 10° SE
STARLINK-1187 2.6 01:45:36 10° WNW 01:48:41 76° SW 01:51:47 10° SE
Cosmos 1898 Rocket 4.1 01:44:03 10° NNW 01:49:21 59° ENE 01:54:35 10° SE
Starlink 7 placeholder 4.3 01:49:43 18° NNW 01:49:48 18° NNW 01:51:19 10° NNE
STARLINK-1191 2.7 01:46:58 10° WNW 01:50:04 83° SW 01:53:10 10° SE
Meteor 1-21 Rocket 4.3 01:46:49 25° S 01:50:11 78° E 01:55:52 10° NNE
Lacrosse 4 Rocket 4.0 01:47:09 10° N 01:50:41 23° NE 01:54:07 10° E
STARLINK-1221 2.7 01:47:50 10° WNW 01:50:56 82° SSW 01:54:03 10° SE
Cosmos 1656 4.0 01:48:20 25° S 01:51:38 61° ESE 01:57:11 10° NNE
STARLINK-1222 2.7 01:48:43 10° WNW 01:51:49 80° SW 01:54:56 10° SE
STARLINK-1214 2.6 01:49:39 10° WNW 01:52:44 79° SSW 01:55:49 10° SE
STARLINK-1154 4.3 01:49:10 10° NW 01:53:15 58° NNE 01:57:21 10° ESE
CZ-4C R/B 3.3 01:50:43 18° SSE 01:53:36 31° ESE 01:58:31 10° NE
Cosmos 2084 3.5 01:52:18 33° SW 01:54:17 82° NW 01:58:47 10° NE
SJ 16-02 1.5 01:50:28 10° NNW 01:54:55 73° ENE 01:59:17 10° SSE
Cosmos 468 Rocket 4.3 01:52:22 24° S 01:55:23 59° ESE 02:00:26 10° NNE
STARLINK-1197 4.1 01:54:08 10° NW 01:58:15 61° NNE 02:02:22 10° ESE
COSMOS 2455 4.0 01:54:47 14° WSW 01:59:12 34° NW 02:04:40 10° NNE
Cosmos 1937 Rocket 4.3 01:54:27 10° NNW 01:59:35 52° ENE 02:04:43 10° SE
Cosmos 1300 4.3 01:56:59 10° NW 01:59:45 19° W 02:00:00 19° W
Meteor 2-10 Rocket 3.5 01:56:37 10° NNW 02:01:59 83° W 02:06:00 17° S
Cosmos 921 Rocket 4.1 02:00:21 23° WSW 02:02:08 32° WNW 02:06:03 10° N
STARLINK-1198 4.0 01:59:05 10° NW 02:03:13 65° NNE 02:07:20 10° ESE
Cosmos 1709 Rocket 3.9 02:01:48 22° SSW 02:05:53 79° W 02:12:03 10° N
STARLINK-1199 3.9 02:04:05 10° NW 02:08:14 69° NNE 02:12:22 10° ESE
Cosmos 1626 Rocket 4.5 02:06:42 24° WSW 02:08:25 33° WNW 02:12:22 10° N
Cosmos 1626 4.3 02:09:03 12° W 02:10:06 13° WNW 02:11:58 10° NW
STARLINK-1210 3.8 02:09:03 10° WNW 02:13:12 74° NNE 02:17:21 10° ESE
STARLINK-1320 2.9 02:14:52 36° SW 02:15:55 65° SE 02:19:00 10° ENE
STARLINK-1322 2.9 02:15:11 36° SW 02:16:15 66° SE 02:19:21 10° ENE
STARLINK-1324 2.9 02:15:32 36° SW 02:16:36 66° SE 02:19:43 10° ENE
STARLINK-1294 2.9 02:15:47 35° SW 02:16:53 67° SE 02:20:00 10° ENE
Cosmos 2219 3.3 02:11:24 10° NW 02:16:54 53° WSW 02:22:14 10° S
STARLINK-1261 2.9 02:16:09 35° SW 02:17:15 67° SE 02:20:21 10° ENE
STARLINK-1325 2.9 02:16:30 35° SW 02:17:37 68° SE 02:20:44 10° ENE
STARLINK-1333 2.9 02:16:48 35° SW 02:17:56 68° SE 02:21:02 10° ENE
STARLINK-1219 3.7 02:14:02 10° WNW 02:18:11 79° NNE 02:22:20 10° ESE
STARLINK-1334 2.8 02:17:07 35° SW 02:18:16 68° SE 02:21:22 10° ENE
STARLINK-1326 2.8 02:17:28 34° SW 02:18:37 69° SE 02:21:43 10° ENE
STARLINK-1323 2.8 02:17:47 34° SW 02:18:57 69° SE 02:22:03 10° ENE
Cosmos 1980 Rocket 3.6 02:14:10 10° SSE 02:19:00 31° ESE 02:23:52 10° NE
STARLINK-1338 3.2 02:17:39 30° SW 02:19:10 64° SE 02:22:37 10° ENE
STARLINK-1349 2.8 02:18:06 34° SW 02:19:16 70° SSE 02:22:24 10° ENE
STARLINK-1336 2.8 02:18:28 34° SW 02:19:39 71° SE 02:22:45 10° ENE
STARLINK-1331 2.8 02:18:45 33° SW 02:19:57 71° SE 02:23:04 10° ENE
STARLINK-1344 2.8 02:19:05 33° SW 02:20:18 72° SE 02:23:25 10° ENE
STARLINK-1343 2.8 02:19:25 33° SW 02:20:38 72° SE 02:23:45 10° ENE
STARLINK-1346 2.8 02:19:43 32° SW 02:20:59 73° SE 02:24:08 10° ENE
STARLINK-1328 2.8 02:20:05 32° SW 02:21:19 73° SSE 02:24:27 10° ENE
STARLINK-1354 2.8 02:20:22 32° SW 02:21:38 73° SE 02:24:45 10° ENE
Cosmos 1328 3.7 02:19:18 21° S 02:21:54 90° NNW 02:25:54 10° N
STARLINK-1347 2.8 02:20:44 32° SW 02:22:00 74° SSE 02:25:07 10° ENE
STARLINK-1357 2.8 02:21:01 32° SW 02:22:18 75° SSE 02:25:26 10° ENE
STARLINK-1335 2.8 02:21:22 32° SW 02:22:40 75° SE 02:25:47 10° ENE
CRYOSAT 2 4.4 02:18:01 10° N 02:22:57 82° E 02:27:16 13° S
STARLINK-1327 2.8 02:21:41 31° SW 02:22:59 76° SE 02:26:06 10° ENE
STARLINK-1211 3.6 02:18:59 10° WNW 02:23:09 84° NNE 02:27:18 10° ESE
STARLINK-1371 3.2 02:21:31 28° SW 02:23:11 69° SSE 02:26:41 10° ENE
STARLINK-1340 2.8 02:22:01 31° SW 02:23:21 76° SE 02:26:27 10° ENE
STARLINK-1356 2.8 02:22:21 31° SW 02:23:40 77° SSE 02:26:48 10° ENE
STARLINK-1345 2.8 02:22:41 31° SW 02:24:02 77° SE 02:27:09 10° ENE
STARLINK-1355 2.8 02:22:59 30° SW 02:24:21 78° SSE 02:27:28 10° ENE
ERS-2 3.0 02:20:52 10° SSE 02:24:24 49° ENE 02:27:58 10° N
STARLINK-1321 2.8 02:23:18 30° SW 02:24:40 78° SSE 02:27:48 10° ENE
STARLINK-1358 2.8 02:23:39 30° SW 02:25:03 79° SE 02:28:10 10° ENE
STARLINK-1341 3.1 02:23:29 27° SW 02:25:14 72° SE 02:28:44 10° ENE
STARLINK-1332 2.8 02:23:57 30° SW 02:25:21 79° SSE 02:28:29 10° ENE
STARLINK-1348 2.8 02:24:18 29° SW 02:25:43 80° SSE 02:28:51 10° ENE
STARLINK-1330 2.8 02:24:36 29° SW 02:26:02 80° SSE 02:29:09 10° ENE
STARLINK-1363 2.8 02:24:56 29° SW 02:26:22 81° SE 02:29:29 10° ENE
STARLINK-1337 2.8 02:25:15 29° SW 02:26:42 81° SSE 02:29:50 10° ENE
STARLINK-1342 2.8 02:25:35 28° SW 02:27:03 82° SSE 02:30:10 10° ENE
STARLINK-1374 3.1 02:25:26 26° SW 02:27:17 75° SE 02:30:47 10° ENE
STARLINK-1364 2.8 02:25:55 28° SW 02:27:23 82° SSE 02:30:31 10° ENE
STARLINK-1376 2.8 02:26:15 28° SW 02:27:44 83° SSE 02:30:52 10° ENE
STARLINK-1360 2.8 02:26:30 28° SW 02:28:01 83° SE 02:31:08 10° ENE
STARLINK-1245 3.6 02:23:59 10° WNW 02:28:09 90° NE 02:32:18 10° ESE
STARLINK-1361 2.8 02:26:56 28° SW 02:28:26 84° SSE 02:31:35 10° ENE
STARLINK-1367 2.8 02:27:10 27° SW 02:28:43 84° SSE 02:31:53 10° ENE
IRS-1C 4.2 02:23:21 10° NNE 02:28:43 80° ESE 02:33:25 14° S
STARLINK-1366 2.8 02:27:33 27° SW 02:29:05 85° SE 02:32:12 10° ENE
AQUA 4.4 02:24:33 10° N 02:29:05 45° WNW 02:32:11 19° SW
STARLINK-1339 3.1 02:27:27 25° SW 02:29:21 77° SSE 02:32:52 10° ENE
SL-4 R/B 3.2 02:25:19 10° W 02:29:59 47° NNW 02:34:29 10° ENE
STARLINK-1377 3.1 02:29:28 24° SW 02:31:27 80° SSE 02:34:58 10° ENE
CZ-4B R/B 4.1 02:26:44 10° N 02:31:35 44° WNW 02:35:12 17° SW
Cosmos 2297 Rocket 2.4 02:26:59 10° NW 02:32:26 49° WSW 02:37:49 10° S
STARLINK-1233 3.5 02:28:57 10° WNW 02:33:07 84° SSW 02:37:16 10° SE
STARLINK-1353 3.1 02:31:17 23° SW 02:33:19 83° SSE 02:36:48 10° ENE
STARLINK-1375 3.1 02:33:04 22° SW 02:35:11 86° SE 02:38:41 10° ENE
Cosmos 2082 3.7 02:30:31 10° NNW 02:36:14 88° WSW 02:41:51 10° SSE
Cosmos 540 Rocket 3.9 02:32:22 12° S 02:37:06 57° ESE 02:42:08 10° NNE
ATLAS CENTAUR R/B 3.7 02:34:30 10° WNW 02:37:10 16° NW 02:39:43 10° N
STARLINK-1350 3.1 02:35:22 21° WSW 02:37:34 89° SSE 02:41:04 10° ENE
STARLINK-1204 3.5 02:33:57 10° WNW 02:38:06 79° SSW 02:42:15 10° SE
FALCON 9 DEB 3.9 02:35:24 14° W 02:38:07 48° NNW 02:41:30 10° NE
Cosmos 990 Rocket 4.2 02:33:08 10° NNW 02:38:16 53° WSW 02:43:21 10° S
CBERS-1 4.3 02:33:30 10° N 02:38:30 55° WNW 02:42:28 16° SW
STARLINK-29 4.4 02:37:01 10° W 02:39:57 32° NNW 02:42:53 10° NE
STARLINK-1352 3.1 02:37:39 20° WSW 02:40:00 88° NNW 02:43:32 10° ENE
OE (NEXTSAT) 4.3 02:36:54 12° W 02:40:09 85° N 02:43:39 10° E
Cosmos 1825 Rocket 3.9 02:38:22 18° SSW 02:41:19 49° WNW 02:45:33 10° N
Cosmos 2278 4.2 02:36:09 11° S 02:41:28 56° ESE 02:47:00 10° NNE
STARLINK-1368 3.2 02:39:45 19° WSW 02:42:10 85° NNW 02:45:42 10° ENE
Cosmos 1455 3.2 02:39:01 10° NNW 02:42:17 29° W 02:44:16 18° SW
CZ-2D R/B 4.1 02:38:59 10° NNE 02:43:01 53° E 02:47:08 10° S
STARLINK-1238 3.5 02:38:55 10° WNW 02:43:03 73° SW 02:47:11 10° SE
Meteor 1-11 4.3 02:38:11 10° S 02:43:47 85° E 02:49:25 10° NNE
STARLINK-1369 3.2 02:41:37 18° WSW 02:44:05 82° NNW 02:47:36 10° ENE
Meteor 1-28 Rocket 3.3 02:40:25 10° SSE 02:44:11 82° ENE 02:47:59 10° N
SL-16 R/B 3.6 02:41:06 16° SW 02:44:33 24° W 02:49:30 10° NW
USA 234 4.3 02:38:57 10° ENE 02:44:54 36° SE 02:50:48 10° SSW
ATLAS CENTAUR R/B 2.7 02:43:16 10° WNW 02:46:31 43° SW 02:53:55 10° SSE
STARLINK-1372 3.2 02:43:57 17° WSW 02:46:33 79° NNW 02:50:06 10° ENE
Cosmos 2074 Rocket 4.1 02:40:54 10° S 02:47:12 87° E 02:53:32 10° N
Cosmos 2263 Rocket 4.2 02:42:57 10° N 02:47:59 32° NE 02:52:57 10° ESE
STARLINK-1201 3.5 02:43:55 10° WNW 02:48:02 67° SW 02:52:09 10° SE
STARLINK-1378 3.3 02:46:05 16° WSW 02:48:47 76° NNW 02:52:20 10° ENE
STARLINK-1329 3.3 02:46:35 16° WSW 02:49:19 76° NNW 02:52:51 10° ENE
Cosmos 841 Rocket 3.6 02:44:27 12° SSW 02:49:21 80° ESE 02:54:37 10° NNE
Cosmos 372 Rocket 4.5 02:44:51 10° NNW 02:49:57 63° ENE 02:55:03 10° SSE
STARLINK-1365 3.3 02:47:16 16° WSW 02:50:02 72° NNW 02:53:34 10° NE
GP-B 4.1 02:46:33 10° NNW 02:50:29 31° W 02:53:36 14° SW
STARLINK-1379 3.3 02:48:13 15° WSW 02:51:00 74° NNW 02:54:33 10° ENE
IRS-1D 4.2 02:46:18 10° N 02:51:22 44° WNW 02:55:45 13° SW
STARLINK-1362 3.3 02:48:47 15° WSW 02:51:36 73° NNW 02:55:09 10° NE
STARLINK-1206 3.6 02:48:54 10° WNW 02:53:01 62° SW 02:57:06 10° SE
Cosmos-2242 3.7 02:50:00 10° NNW 02:53:52 34° W 02:57:20 12° SSW
STARLINK-1373 3.4 02:50:59 14° WSW 02:53:54 70° NNW 02:57:27 10° NE
COBE Rocket 3.9 02:49:19 10° S 02:54:13 78° W 02:59:18 10° NNW
Cosmos 1400 Rocket 2.8 02:51:01 10° NNW 02:55:09 76° W 02:59:16 10° S
NOSS 7 (E) 4.3 02:53:04 15° SW 02:55:55 79° NW 02:59:02 10° NE
Cosmos 2221 3.4 02:51:41 10° N 02:55:56 52° ENE 03:00:11 10° SSE
STARLINK-1390 3.4 02:52:59 14° WSW 02:55:57 68° NNW 02:59:29 10° NE
ATLAS 3B R/B 4.2 02:53:33 10° WNW 02:57:04 15° WSW 02:59:50 12° SW
STARLINK-1205 3.6 02:53:54 10° WNW 02:57:59 57° SW 03:02:02 10° SE
Cosmos 2184 Rocket 4.0 02:52:32 10° S 02:58:44 81° W 03:04:56 10° N
SL-08 R/B 3.6 02:55:13 10° S 02:59:46 47° W 03:04:16 10° NNW
CZ-4C R/B 3.2 02:56:35 10° SSE 03:00:08 78° ENE 03:03:48 10° N
STARLINK-1218 3.7 02:58:53 10° WNW 03:02:55 53° SW 03:06:57 10° SE
CZ-2D R/B 3.8 03:03:42 10° NNW 03:07:15 19° WNW 03:10:46 10° W
Cosmos 2227 Rocket 3.0 03:02:56 10° NW 03:07:49 30° WSW 03:12:40 10° SSW
STARLINK-1254 3.8 03:03:53 10° WNW 03:07:53 48° SW 03:11:53 10° SE
Cosmos 1763 Rocket 4.2 03:03:46 12° SW 03:08:17 40° WNW 03:13:05 10° N
ADEOS II 2.8 03:05:12 10° N 03:10:04 39° WNW 03:14:55 10° SW
Cosmos 1697 Rocket 2.9 03:04:56 11° SW 03:10:21 61° WNW 03:15:59 10° NNE
Cosmos 2150 Rocket 4.3 03:06:47 10° NNW 03:12:00 74° ENE 03:17:08 10° SSE
STARLINK-1231 3.9 03:08:55 10° WNW 03:12:52 44° SW 03:16:49 10° SSE
Cosmos 1315 Rocket 3.2 03:11:17 10° N 03:15:12 65° ENE 03:19:04 10° SSE
STARLINK-1246 4.3 03:11:05 10° NW 03:15:13 60° NNE 03:19:19 10° ESE
SL-16 R/B 4.1 03:11:47 10° SSE 03:16:26 27° ESE 03:21:07 10° NE
Resurs 1-4 Rocket 4.0 03:13:37 10° NNW 03:16:38 16° WNW 03:19:40 10° W
CZ-2C R/B 2.7 03:13:16 10° NNE 03:16:59 83° ESE 03:20:42 10° SSW
Cosmos 1610 Rocket 4.5 03:11:17 10° S 03:17:25 86° W 03:23:36 10° N
STARLINK-1232 4.0 03:13:55 10° WNW 03:17:49 41° SW 03:21:43 10° SSE
MSX 4.4 03:12:14 10° NNE 03:17:58 61° ESE 03:23:38 10° S
STARLINK-1224 4.2 03:16:04 10° NW 03:20:11 64° NNE 03:24:19 10° ESE
SAR-Lupe-4 4.2 03:16:47 10° SSE 03:20:18 60° ENE 03:23:52 10° N
H-2A R/B 2.3 03:16:24 10° S 03:20:36 52° W 03:24:56 10° NNW
ARIANE 5 R/B 2.9 03:16:49 10° N 03:21:40 47° WNW 03:26:27 10° SW
STARLINK-1208 4.1 03:18:55 10° WNW 03:22:46 38° SW 03:26:36 10° SSE
BREEZE-M R/B 3.1 03:20:19 10° W 03:23:35 40° NNW 03:25:58 10° ENE
STARLINK-1225 4.1 03:21:03 10° NW 03:25:12 68° NNE 03:29:20 10° ESE
Spot 4 Rocket 4.3 03:22:34 10° N 03:27:37 57° WNW 03:32:37 10° SSW
STARLINK-1271 4.2 03:23:57 10° WNW 03:27:44 35° SW 03:31:30 10° SSE
SL-24 DEB 4.2 03:23:29 10° N 03:28:09 84° W 03:32:44 10° S
BREEZE-M DEB (TANK) 2.3 03:26:29 10° W 03:28:17 24° SSW 03:30:26 10° SSE
Lacrosse 4 Rocket 1.7 03:25:27 10° NW 03:29:37 47° WSW 03:33:39 10° S
STARLINK-1230 4.0 03:26:01 10° WNW 03:30:11 72° NNE 03:34:19 10° ESE
Meteor 1-27 4.5 03:25:09 10° NNW 03:30:30 49° W 03:35:49 10° SSW
Cosmos 2154 Rocket 4.1 03:24:26 10° SSW 03:30:44 73° W 03:37:00 10° N
